EWG538 EDDK-LEVC

Flight info

Callsign EWG538
Flight time N/A
Altitude 35000
Route NVO2K NVO Y868 SOGRI UM617 CIV N872 MEDIL/N0448F370 DCT KOVIN DCT DUCRA UM728 RESMI UN857 DISAK DCT DIRMO DCT GUERE DCT EVPOK DCT AGN DCT ANETO DCT POSSY DCT ROCME DCT SEROX N860 SAURA
Aircraft A320/M-SDE3FGHIRWY/LB1

Departure

Time N/A
Airport Cologne Bonn Airport (EDDK)

Arrival

Time 2026-04-29 10:45
Airport Valencia Airport (LEVC)
Time Latitude Longitude Altitude Speed Heading
2026-04-29 10:38 39.66865 -0.79079 4994 ft 223 kts 216°
2026-04-29 10:38 39.65635 -0.80311 5003 ft 222 kts 208°
2026-04-29 10:38 39.64208 -0.80991 5006 ft 219 kts 185°
2026-04-29 10:38 39.62702 -0.80876 5008 ft 218 kts 162°
2026-04-29 10:39 39.61368 -0.80000 5005 ft 216 kts 140°
2026-04-29 10:39 39.60411 -0.78501 4916 ft 217 kts 118°
2026-04-29 10:39 39.59747 -0.76755 4688 ft 215 kts 116°
2026-04-29 10:39 39.59103 -0.75026 4420 ft 212 kts 115°
2026-04-29 10:40 39.58462 -0.73319 4145 ft 209 kts 115°
2026-04-29 10:40 39.57821 -0.71620 3854 ft 210 kts 115°
2026-04-29 10:40 39.57181 -0.69924 3573 ft 209 kts 115°
2026-04-29 10:40 39.56541 -0.68232 3305 ft 208 kts 115°
2026-04-29 10:41 39.55907 -0.66555 3034 ft 206 kts 115°
2026-04-29 10:41 39.55289 -0.64920 2773 ft 203 kts 114°
2026-04-29 10:41 39.54672 -0.63293 2502 ft 195 kts 114°
2026-04-29 10:41 39.54092 -0.61762 2230 ft 188 kts 114°
2026-04-29 10:42 39.53536 -0.60295 1990 ft 174 kts 114°
2026-04-29 10:42 39.53032 -0.58968 1783 ft 156 kts 114°
2026-04-29 10:42 39.52581 -0.57780 1582 ft 142 kts 114°
2026-04-29 10:42 39.52153 -0.56648 1396 ft 139 kts 113°
2026-04-29 10:43 39.51730 -0.55539 1173 ft 137 kts 114°
2026-04-29 10:43 39.51310 -0.54443 1053 ft 136 kts 115°
2026-04-29 10:43 39.50874 -0.53333 856 ft 136 kts 114°
2026-04-29 10:43 39.50465 -0.52253 670 ft 134 kts 113°
2026-04-29 10:44 39.50068 -0.51175 480 ft 132 kts 114°
2026-04-29 10:44 39.49669 -0.50109 300 ft 131 kts 114°
2026-04-29 10:44 39.49299 -0.49127 224 ft 106 kts 116°
2026-04-29 10:44 39.49050 -0.48470 208 ft 57 kts 116°
2026-04-29 10:45 39.48931 -0.48159 204 ft 32 kts 116°
2026-04-29 10:45 39.48838 -0.47908 208 ft 30 kts 117°
2026-04-29 10:45 39.48738 -0.47652 203 ft 35 kts 116°
2026-04-29 10:45 39.48650 -0.47371 191 ft 31 kts 95°
2026-04-29 10:46 39.48699 -0.47204 191 ft 18 kts 41°
2026-04-29 10:46 39.48724 -0.47188 191 ft 0 kts 19°
2026-04-29 10:46 39.48726 -0.47187 191 ft 0 kts 19°
2026-04-29 10:46 39.48728 -0.47186 190 ft 0 kts 19°
2026-04-29 10:47 39.48743 -0.47181 199 ft 6 kts 12°
2026-04-29 10:47 39.48812 -0.47200 191 ft 14 kts 336°
2026-04-29 10:48 39.48898 -0.47246 194 ft 12 kts 329°
2026-04-29 10:48 39.48936 -0.47313 194 ft 6 kts 300°
2026-04-29 10:48 39.48939 -0.47319 197 ft 0 kts 305°
2026-04-29 10:48 39.48948 -0.47313 191 ft 4 kts 19°
2026-04-29 10:49 39.48997 -0.47295 199 ft 7 kts 13°
2026-04-29 10:49 39.49028 -0.47286 191 ft 3 kts 12°
2026-04-29 10:49 39.49032 -0.47285 191 ft 0 kts 12°